{"data":{"norad_id":59660,"epoch":"2026-05-25T04:45:15.134112Z","epoch_age_seconds":68092,"freshness":"FRESH","line1":"1 59660U 24084G   26145.19809183  .00011655  00000+0  43211-3 0  9992","line2":"2 59660  43.0006 326.3013 0001369 274.8632  85.2063 15.27600073116115","mean_motion":15.27600073,"eccentricity":0.0001369,"inclination_deg":43.0006,"raan_deg":326.3013,"arg_perigee_deg":274.8632,"mean_anomaly_deg":85.2063,"bstar":0.00043211,"rev_number":11611,"period_min":94.265510027899,"perigee_km":482.04970276644,"apogee_km":483.92827906276,"semimajor_km":6861.1259909146,"source":"CELESTRAK","updated_at":"2026-05-25T13:38:19.018734Z"}}